Ketchikan, AK

5:24 PM AKST on February 20, 2019 (GMT -0900)
Ketchikan International

Weather History for PAKT - January, 2019

Change the Weather History Date:

Friday, January 4, 2019

  Actual Average Record
Temperature  
Mean Temperature 30 °F -  
Max Temperature 33 °F 37 °F 50 °F (1958)
Min Temperature 28 °F 26 °F 0 °F (1965)
Degree Days  
Heating Degree Days 34    
Moisture  
Dew Point 22 °F    
Average Humidity 68    
Maximum Humidity 80    
Minimum Humidity 52    
Precipitation  
Precipitation 0.00 in - - ()
Sea Level Pressure  
Sea Level Pressure 29.55 in    
Wind  
Wind Speed 9 mph (NW)    
Max Wind Speed 13 mph    
Max Gust Speed -    
Visibility 10 miles    
Events      
Averages and records for this station are not official NWS values.
T = Trace of Precipitation, MM = Missing Value Source: NWS Daily Summary

Daily Weather History Graph

Daily Weather History Graph

Search for Another Location

Airport or City:

Astronomy

Jan. 04, 2019 Rise Set
Actual Time 8:12 AM AKST 3:31 PM AKST
Civil Twilight 7:27 AM AKST 4:16 PM AKST
Nautical Twilight 6:40 AM AKST 5:03 PM AKST
Astronomical Twilight 5:55 AM AKST 5:48 PM AKST
Moon 7:00 AM AKST (1/4) 2:42 PM AKST (1/4)
Length of Visible Light 8h 48m
Length of Day
7h 18m
Waning Crescent, 1% of the Moon is Illuminated
Jan 4
Waning Crescent
Jan 5
New
Jan 13
First Quarter
Jan 20
Full
Jan 27
Last Quarter

Hourly Weather History & Observations

Time (AKST) Temp. Windchill Dew Point Humidity Pressure Visibility Wind Dir Wind Speed Gust Speed Precip Events Conditions
12:53 AM 30.9 °F 22.8 °F 24.1 °F 76% 29.44 in 10.0 mi NW 9.2 mph - N/A   Clear
1:53 AM 32.0 °F 24.2 °F 23.0 °F 69% 29.45 in 10.0 mi NW 9.2 mph - N/A   Clear
2:53 AM 30.0 °F 21.7 °F 24.1 °F 79% 29.47 in 10.0 mi NW 9.2 mph - N/A   Clear
3:53 AM 30.0 °F 23.2 °F 24.1 °F 79% 29.47 in 10.0 mi NW 6.9 mph - N/A   Clear
4:53 AM 30.0 °F 21.7 °F 24.1 °F 79% 29.48 in 10.0 mi NW 9.2 mph - N/A   Clear
5:53 AM 28.9 °F 21.9 °F 23.0 °F 78% 29.49 in 10.0 mi NW 6.9 mph - N/A   Clear
6:53 AM 30.2 °F 21.3 °F 21.2 °F 69% 29.51 in 10.0 mi NW 10.4 mph - N/A   Clear
7:53 AM 28.4 °F 19.7 °F 23.0 °F 80% 29.52 in 10.0 mi NW 9.2 mph - N/A   Clear
8:53 AM 30.0 °F 21.1 °F 23.0 °F 75% 29.54 in 10.0 mi NW 10.4 mph - N/A   Clear
9:53 AM 32.0 °F 24.8 °F 23.0 °F 69% 29.56 in 10.0 mi NW 8.1 mph - N/A   Clear
10:53 AM 33.8 °F 25.8 °F 21.2 °F 60% 29.57 in 10.0 mi NW 10.4 mph - N/A   Clear
11:53 AM 33.8 °F 25.8 °F 19.4 °F 56% 29.57 in 10.0 mi WNW 10.4 mph - N/A   Clear
12:53 PM 33.8 °F 25.3 °F 19.4 °F 56% 29.57 in 10.0 mi WNW 11.5 mph - N/A   Partly Cloudy
1:53 PM 33.8 °F 25.3 °F 17.6 °F 52% 29.57 in 10.0 mi WNW 11.5 mph - N/A   Clear
2:53 PM 33.8 °F 26.4 °F 17.6 °F 52% 29.58 in 10.0 mi NW 9.2 mph - N/A   Clear
3:53 PM 33.1 °F 25.5 °F 19.9 °F 59% 29.59 in 10.0 mi NW 9.2 mph - N/A   Clear
4:53 PM 33.1 °F 24.4 °F 21.0 °F 61% 29.60 in 10.0 mi NW 11.5 mph - N/A   Clear
5:53 PM 30.9 °F 22.2 °F 23.0 °F 72% 29.60 in 10.0 mi NW 10.4 mph - N/A   Clear
6:53 PM 32.0 °F 24.2 °F 21.9 °F 66% 29.61 in 10.0 mi NW 9.2 mph - N/A   Clear
7:53 PM 32.0 °F 24.2 °F 21.9 °F 66% 29.62 in 10.0 mi NW 9.2 mph - N/A   Clear
8:53 PM 30.9 °F 22.2 °F 23.0 °F 72% 29.62 in 10.0 mi NW 10.4 mph - N/A   Clear
9:53 PM 30.9 °F 23.5 °F 21.9 °F 69% 29.62 in 10.0 mi NW 8.1 mph - N/A   Clear
10:53 PM 30.0 °F 21.7 °F 21.9 °F 72% 29.62 in 10.0 mi NW 9.2 mph - N/A   Clear
11:53 PM 30.0 °F 20.0 °F 23.0 °F 75% 29.62 in 10.0 mi NW 12.7 mph - N/A   Clear